Simultaneous Nadir Overpasses (SNOs) Predictions

Prediction of SNOs between AQUA and NOAA-19 Satellite Orbit:

Table of predicted SNOs for the next 14.0 days since TLE Epoch: 10/28/2022
Index Date (AQUA) Time (AQUA) Lat,Lon (AQUA) SZA (AQUA ) Date (NOAA-19) Time (NOAA-19) Lat,Lon (NOAA-19) SZA (NOAA-19 ) Distance(km) Time Diff (sec)
1 10/29/2022 08:16:03 -77.16,-137.92 89.25 10/29/2022 08:15:57 -77.15,-137.90 89.26 0.66 6
2 10/31/2022 13:49:01 77.16, -41.15 91.48 10/31/2022 13:48:50 77.15, -41.06 91.47 2.38 11
3 10/31/2022 14:38:30 -77.34, 125.77 88.30 10/31/2022 14:39:40 -77.37, 127.28 88.33 36.96 70
4 11/02/2022 19:21:56 -77.12, 55.78 87.86 11/02/2022 19:21:35 -77.12, 55.69 87.85 2.26 21
5 11/02/2022 20:11:24 77.18,-136.83 92.23 11/02/2022 20:12:37 77.19,-136.73 92.23 2.70 73
6 11/05/2022 00:54:53 77.12, 152.54 92.84 11/05/2022 00:54:27 77.12, 152.56 92.84 0.56 26
7 11/05/2022 01:44:19 -77.16, -39.97 87.11 11/05/2022 01:45:22 -77.17, -39.94 87.11 1.18 63
8 11/07/2022 06:27:48 -77.12,-110.67 86.50 11/07/2022 06:27:12 -77.11,-110.59 86.50 2.32 36
9 11/07/2022 07:17:15 77.15, 56.87 93.55 11/07/2022 07:18:14 77.15, 56.84 93.55 0.86 59
10 11/09/2022 12:00:43 77.08, -13.74 94.11 11/09/2022 12:00:03 77.11, -13.73 94.15 2.98 40
11 11/09/2022 12:50:09 -77.12, 153.76 85.84 11/09/2022 12:50:59 -77.16, 153.74 85.81 3.80 50



Historial Predications of SNOs between AQUA and NOAA-19
